Fitchburg, MA

10:28 PM EDT on June 28, 2017 (GMT -0400)
Fitchburg Municipal

Weather History for KFIT - October, 2013

Change the Weather History Date:

Thursday, October 3, 2013

  Actual Average (KORH) Record (KORH)
Temperature  
Mean Temperature 65 °F -  
Max Temperature 78 °F 63 °F 83 °F (1931)
Min Temperature 52 °F 46 °F 30 °F (1899)
Growing Degree Days 15 (Base 50)    
Moisture  
Dew Point 48 °F    
Average Humidity 63    
Maximum Humidity 93    
Minimum Humidity 28    
Precipitation  
Precipitation 0.01 in - - ()
Sea Level Pressure  
Sea Level Pressure 30.06 in    
Wind  
Wind Speed 3 mph (NW)    
Max Wind Speed 8 mph    
Max Gust Speed -    
Visibility 10 miles    
Events      
Averages and records for this station are not official NWS values.
T = Trace of Precipitation, MM = Missing Value Source: NWS Daily Summary

Daily Weather History Graph

Daily Weather History Graph

Search for Another Location

Airport or City:

Trip Planner

Search our weather history database for the weather conditions in past years. The results will help you decide how hot, cold, wet, or windy it might be!

Date:

Astronomy

Oct. 03, 2013 Rise Set
Actual Time 6:46 AM EDT 6:24 PM EDT
Civil Twilight 6:18 AM EDT 6:52 PM EDT
Nautical Twilight 5:45 AM EDT 7:25 PM EDT
Astronomical Twilight 5:12 AM EDT 7:58 PM EDT
Moon 5:15 AM EDT (10/3) 5:32 PM EDT (10/3)
Length of Visible Light 12h 34m
Length of Day
11h 37m
Waning Crescent, 2% of the Moon is Illuminated
Oct 3
Waning Crescent
Oct 4
New
Oct 11
First Quarter
Oct 18
Full
Oct 26
Last Quarter

Hourly Weather History & Observations

Time (EDT) Temp. Dew Point Humidity Pressure Visibility Wind Dir Wind Speed Gust Speed Precip Events Conditions
12:52 AM 57.0 °F 54.0 °F 89% 29.99 in 8.0 mi Calm Calm - N/A   Clear
1:52 AM 57.0 °F 52.0 °F 83% 30.01 in 10.0 mi Calm Calm - N/A   Clear
2:52 AM 54.0 °F 51.1 °F 90% 30.01 in 9.0 mi Calm Calm - N/A   Clear
3:52 AM 53.1 °F 50.0 °F 89% 30.03 in 10.0 mi Calm Calm - N/A   Clear
4:52 AM 52.0 °F 50.0 °F 93% 30.04 in 9.0 mi Calm Calm - N/A   Clear
5:52 AM 52.0 °F 48.0 °F 86% 30.05 in 10.0 mi NNW 5.8 mph - 0.01 in   Clear
6:52 AM 52.0 °F 48.0 °F 86% 30.07 in 10.0 mi North 5.8 mph - N/A   Clear
7:52 AM 57.9 °F 51.1 °F 78% 30.09 in 10.0 mi NNW 5.8 mph - N/A   Clear
8:52 AM 64.9 °F 51.1 °F 61% 30.10 in 10.0 mi NW 5.8 mph - N/A   Clear
9:52 AM 70.0 °F 48.0 °F 46% 30.11 in 10.0 mi NW 5.8 mph - N/A   Clear
10:52 AM 70.0 °F 48.9 °F 47% 30.10 in 10.0 mi WNW 8.1 mph - N/A   Clear
11:52 AM 73.0 °F 46.9 °F 39% 30.09 in 10.0 mi Calm Calm - N/A   Clear
12:52 PM 75.9 °F 44.1 °F 32% 30.08 in 10.0 mi WSW 6.9 mph - N/A   Clear
1:52 PM 77.0 °F 44.1 °F 31% 30.05 in 10.0 mi SSW 6.9 mph - N/A   Clear
2:52 PM 78.1 °F 43.0 °F 29% 30.04 in 10.0 mi West 6.9 mph - N/A   Clear
3:52 PM 78.1 °F 42.1 °F 28% 30.03 in 10.0 mi West 6.9 mph - N/A   Clear
4:52 PM 73.9 °F 44.1 °F 34% 30.03 in 10.0 mi WSW 3.5 mph - N/A   Clear
5:52 PM 70.0 °F 46.0 °F 42% 30.04 in 10.0 mi West 3.5 mph - N/A   Clear
6:52 PM 64.0 °F 50.0 °F 60% 30.05 in 10.0 mi Calm Calm - N/A   Clear
7:52 PM 59.0 °F 51.1 °F 75% 30.06 in 10.0 mi NW 3.5 mph - N/A   Clear
8:52 PM 57.9 °F 52.0 °F 81% 30.07 in 10.0 mi NNW 4.6 mph - N/A   Clear
9:52 PM 59.0 °F 51.1 °F 75% 30.08 in 10.0 mi NNE 3.5 mph - N/A   Clear
10:52 PM 62.1 °F 48.9 °F 62% 30.09 in 10.0 mi North 3.5 mph - N/A   Clear
11:52 PM 57.9 °F 48.0 °F 70% 30.08 in 10.0 mi Calm Calm - N/A   Clear